サイディング・スプリング彗星

C/2006 HW51 ( Siding Spring )

English version
Home page
Updated on September 23, 2007

---------------------------------------------------------------------

・ プロフィール

発見日 2006年4月23日
発見光度 17.5等
発見者 Gordon Garradd (Siding Spring)

・ 軌道要素

The following orbital elements are taken from MPC 59874:

Epoch 2006 Sept. 22.0 TT = JDT 2454000.5
T 2006 Sept. 29.3093 TT                                 MPC
q   2.265649             (2000.0)            P               Q
z  -0.001014       Peri.  359.9597      -0.6678374      +0.5185743
 +/-0.000005       Node   228.1277      -0.6826877      -0.7125638
e   1.002298       Incl.   45.8096      -0.2965311      +0.4725817
From 173 observations 2006 Apr. 23-2007 May 17, mean residual 0".4.

・ 星図

・ 光度変化

        m1 = 11.0 + 5 logΔ + 10.0 log r

---------------------------------------------------------------------

軌道要素はMPCのEphemerides and Orbital Elementsに掲載されたものです。
星図は StellaNavigator Ver.2.0 for Windows (アストロアーツ 編著 / アスキー出版局刊) で作成したものです。
光度グラフはComet for Windowsで作成したものです。

---------------------------------------------------------------------

Copyright(C) Seiichi Yoshida (comet@aerith.net). All rights reserved.